| time (UTC) | temp F | wind direction | speed MPH | gust MPH | rain 1hr in | rain 24hr in | rain mn in | humidity % | barometer mb |
| 20260508102031 | 37 | 0.0 | 0.0 | 0.00 | 0.00 | 0.00 | 94 | 1016.9 | |
| 20260508101018 | 37 | 180 | 2.0 | 2.0 | 0.00 | 0.00 | 0.00 | 94 | 1016.7 |
| 20260508100044 | 36 | 0.0 | 0.0 | 0.00 | 0.00 | 0.00 | 94 | 1016.5 | |
| 20260508095048 | 37 | 161 | 1.0 | 2.0 | 0.00 | 0.00 | 0.00 | 93 | 1016.4 |
| 20260508094053 | 37 | 166 | 2.0 | 3.0 | 0.00 | 0.00 | 0.00 | 94 | 1016.3 |
| 20260508093019 | 37 | 170 | 1.0 | 2.0 | 0.00 | 0.00 | 0.00 | 94 | 1016.5 |
| 20260508092024 | 37 | 171 | 2.0 | 2.0 | 0.00 | 0.00 | 0.00 | 93 | 1016.5 |
| 20260508091028 | 37 | 167 | 1.0 | 3.0 | 0.00 | 0.00 | 0.00 | 94 | 1016.7 |
| 20260508090015 | 38 | 180 | 0.0 | 2.0 | 0.00 | 0.00 | 0.00 | 94 | 1016.6 |
| 20260508085021 | 38 | 157 | 2.0 | 3.0 | 0.00 | 0.00 | 0.00 | 93 | 1016.6 |
| 20260508084025 | 38 | 172 | 2.0 | 3.0 | 0.00 | 0.00 | 0.00 | 93 | 1016.6 |
| 20260508083049 | 38 | 159 | 2.0 | 3.0 | 0.00 | 0.00 | 0.00 | 93 | 1016.5 |
| 20260508082037 | 38 | 162 | 2.0 | 2.0 | 0.00 | 0.00 | 0.00 | 93 | 1016.4 |
| 20260508081021 | 39 | 176 | 2.0 | 3.0 | 0.00 | 0.00 | 0.00 | 93 | 1016.4 |
| 20260508080026 | 39 | 162 | 2.0 | 3.0 | 0.00 | 0.00 | 0.00 | 92 | 1016.4 |
| 20260508075025 | 39 | 170 | 2.0 | 3.0 | 0.00 | 0.00 | 0.00 | 92 | 1016.3 |
| 20260508074026 | 39 | 180 | 2.0 | 3.0 | 0.00 | 0.00 | 0.00 | 92 | 1016.3 |
| 20260508073017 | 40 | 158 | 0.0 | 2.0 | 0.00 | 0.00 | 0.00 | 90 | 1016.4 |
| 20260508072021 | 40 | 166 | 2.0 | 3.0 | 0.00 | 0.00 | 0.00 | 89 | 1016.3 |
| 20260508071026 | 41 | 167 | 1.0 | 3.0 | 0.00 | 0.00 | 0.00 | 87 | 1016.4 |
| 20260508070031 | 41 | 161 | 2.0 | 3.0 | 0.00 | 0.00 | 0.00 | 86 | 1016.3 |
| 20260508065018 | 42 | 172 | 2.0 | 3.0 | 0.00 | 0.00 | 0.00 | 85 | 1016.3 |
| 20260508064023 | 43 | 170 | 1.0 | 2.0 | 0.00 | 0.00 | 0.00 | 82 | 1016.3 |
| 20260508063027 | 43 | 177 | 2.0 | 4.0 | 0.00 | 0.00 | 0.00 | 81 | 1016.3 |
| 20260508062046 | 44 | 0.0 | 0.0 | 0.00 | 0.00 | 0.00 | 78 | 1016.4 | |
| 20260508061019 | 45 | 181 | 1.0 | 2.0 | 0.00 | 0.00 | 0.00 | 75 | 1016.3 |
| 20260508060023 | 46 | 153 | 1.0 | 2.0 | 0.00 | 0.00 | 0.00 | 72 | 1016.3 |
| 20260508055023 | 47 | 165 | 1.0 | 2.0 | 0.00 | 0.00 | 0.00 | 70 | 1016.3 |
| 20260508054035 | 48 | 24 | 1.0 | 3.0 | 0.00 | 0.00 | 0.00 | 68 | 1016.3 |
| 20260508053020 | 49 | 338 | 3.0 | 7.0 | 0.00 | 0.00 | 0.00 | 68 | 1016.2 |
| 20260508052059 | 49 | 327 | 2.0 | 6.0 | 0.00 | 0.00 | 0.00 | 67 | 1016.2 |
| 20260508051037 | 50 | 307 | 2.0 | 4.0 | 0.00 | 0.00 | 0.00 | 67 | 1016.0 |
| 20260508050016 | 51 | 299 | 2.0 | 6.0 | 0.00 | 0.00 | 0.00 | 66 | 1015.8 |
| 20260508045041 | 51 | 308 | 4.0 | 9.0 | 0.00 | 0.00 | 0.00 | 66 | 1015.7 |
| 20260508044026 | 51 | 338 | 4.0 | 9.0 | 0.00 | 0.00 | 0.00 | 66 | 1015.6 |
| 20260508043030 | 52 | 315 | 6.0 | 11.0 | 0.00 | 0.00 | 0.00 | 65 | 1015.5 |
| 20260508042018 | 52 | 328 | 4.0 | 9.0 | 0.00 | 0.00 | 0.00 | 63 | 1015.2 |
| 20260508041022 | 52 | 309 | 6.0 | 9.0 | 0.00 | 0.00 | 0.00 | 63 | 1015.0 |
| 20260508040027 | 50 | 284 | 3.0 | 5.0 | 0.00 | 0.00 | 0.00 | 66 | 1014.7 |
| 20260508035032 | 48 | 276 | 2.0 | 4.0 | 0.00 | 0.00 | 0.00 | 70 | 1014.6 |
| 20260508034018 | 46 | 318 | 1.0 | 5.0 | 0.00 | 0.00 | 0.00 | 77 | 1014.5 |
| 20260508033024 | 46 | 161 | 1.0 | 2.0 | 0.00 | 0.00 | 0.00 | 82 | 1014.4 |
| 20260508032028 | 47 | 171 | 1.0 | 2.0 | 0.00 | 0.00 | 0.00 | 78 | 1014.4 |
| 20260508031033 | 47 | 191 | 0.0 | 1.0 | 0.00 | 0.00 | 0.00 | 78 | 1014.0 |
| 20260508030020 | 48 | 163 | 1.0 | 2.0 | 0.00 | 0.00 | 0.00 | 75 | 1014.0 |
| 20260508025024 | 48 | 174 | 2.0 | 2.0 | 0.00 | 0.00 | 0.00 | 76 | 1014.0 |
| 20260508024029 | 48 | 180 | 2.0 | 2.0 | 0.00 | 0.00 | 0.00 | 77 | 1014.0 |
| 20260508023016 | 49 | 169 | 2.0 | 2.0 | 0.00 | 0.00 | 0.00 | 77 | 1013.9 |
| 20260508022021 | 50 | 170 | 2.0 | 3.0 | 0.00 | 0.00 | 0.00 | 74 | 1013.9 |
| 20260508021025 | 51 | 178 | 2.0 | 3.0 | 0.00 | 0.00 | 0.00 | 69 | 1013.7 |
| 20260508020050 | 51 | 181 | 2.0 | 2.0 | 0.00 | 0.00 | 0.00 | 70 | 1013.5 |
| 20260508015016 | 51 | 192 | 2.0 | 4.0 | 0.00 | 0.00 | 0.00 | 71 | 1013.5 |
| 20260508014022 | 52 | 182 | 2.0 | 3.0 | 0.00 | 0.00 | 0.00 | 67 | 1013.5 |
| 20260508013028 | 52 | 183 | 1.0 | 2.0 | 0.00 | 0.00 | 0.00 | 65 | 1013.3 |
| 20260508012031 | 53 | 225 | 0.0 | 1.0 | 0.00 | 0.00 | 0.00 | 64 | 1013.2 |
| 20260508011018 | 54 | 248 | 0.0 | 2.0 | 0.00 | 0.00 | 0.00 | 62 | 1013.0 |
| 20260508010023 | 55 | 191 | 1.0 | 2.0 | 0.00 | 0.00 | 0.00 | 61 | 1013.0 |
| 20260508005027 | 57 | 201 | 1.0 | 2.0 | 0.00 | 0.00 | 0.00 | 57 | 1012.8 |
| 20260508004032 | 58 | 235 | 3.0 | 5.0 | 0.00 | 0.00 | 0.00 | 53 | 1012.7 |
| 20260508003019 | 58 | 277 | 3.0 | 5.0 | 0.00 | 0.00 | 0.00 | 51 | 1012.6 |
| 20260508002025 | 59 | 282 | 3.0 | 6.0 | 0.00 | 0.00 | 0.00 | 50 | 1012.5 |
| 20260508001028 | 60 | 333 | 5.0 | 7.0 | 0.00 | 0.00 | 0.00 | 50 | 1012.4 |
| 20260508000033 | 61 | 283 | 3.0 | 6.0 | 0.00 | 0.00 | 0.00 | 49 | 1012.2 |
| 20260507235041 | 61 | 298 | 4.0 | 6.0 | 0.00 | 0.00 | 0.00 | 48 | 1012.2 |
| 20260507234025 | 62 | 311 | 4.0 | 8.0 | 0.00 | 0.00 | 0.00 | 48 | 1012.2 |
| 20260507233030 | 63 | 321 | 5.0 | 8.0 | 0.00 | 0.00 | 0.00 | 47 | 1012.0 |
| 20260507232016 | 63 | 280 | 4.0 | 7.0 | 0.00 | 0.00 | 0.00 | 46 | 1011.9 |
| 20260507231021 | 63 | 283 | 5.0 | 7.0 | 0.00 | 0.00 | 0.00 | 46 | 1011.8 |
| 20260507230027 | 64 | 293 | 5.0 | 7.0 | 0.00 | 0.00 | 0.00 | 45 | 1011.7 |
| 20260507225030 | 67 | 299 | 5.0 | 9.0 | 0.00 | 0.00 | 0.00 | 42 | 1011.6 |
| 20260507224017 | 67 | 298 | 7.0 | 11.0 | 0.00 | 0.00 | 0.00 | 43 | 1011.6 |
| 20260507223022 | 68 | 303 | 7.0 | 10.0 | 0.00 | 0.00 | 0.00 | 42 | 1011.5 |
| 20260507222026 | 68 | 309 | 4.0 | 8.0 | 0.00 | 0.00 | 0.00 | 42 | 1011.5 |
| 20260507221025 | 66 | 315 | 6.0 | 7.0 | 0.00 | 0.00 | 0.00 | 44 | 1011.2 |
| 20260507220018 | 68 | 285 | 5.0 | 11.0 | 0.00 | 0.00 | 0.00 | 42 | 1011.2 |
| 20260507215023 | 68 | 295 | 5.0 | 7.0 | 0.00 | 0.00 | 0.00 | 42 | 1011.2 |
| 20260507214021 | 68 | 326 | 5.0 | 9.0 | 0.00 | 0.00 | 0.00 | 42 | 1011.2 |
| 20260507213019 | 69 | 287 | 3.0 | 7.0 | 0.00 | 0.00 | 0.00 | 41 | 1011.1 |
| 20260507212018 | 69 | 286 | 5.0 | 7.0 | 0.00 | 0.00 | 0.00 | 41 | 1011.3 |
| 20260507211017 | 69 | 349 | 5.0 | 8.0 | 0.00 | 0.00 | 0.00 | 41 | 1011.1 |
| 20260507210016 | 68 | 287 | 4.0 | 6.0 | 0.00 | 0.00 | 0.00 | 41 | 1011.3 |
| 20260507205033 | 68 | 310 | 5.0 | 8.0 | 0.00 | 0.00 | 0.00 | 40 | 1011.4 |
| 20260507204020 | 69 | 278 | 4.0 | 6.0 | 0.00 | 0.00 | 0.00 | 41 | 1011.4 |
| 20260507203024 | 69 | 322 | 5.0 | 9.0 | 0.00 | 0.00 | 0.00 | 43 | 1011.3 |
| 20260507202029 | 68 | 344 | 5.0 | 8.0 | 0.00 | 0.00 | 0.00 | 42 | 1011.3 |
| 20260507201015 | 70 | 300 | 6.0 | 9.0 | 0.00 | 0.00 | 0.00 | 41 | 1011.5 |
| 20260507200020 | 69 | 263 | 4.0 | 7.0 | 0.00 | 0.00 | 0.00 | 44 | 1011.7 |
| 20260507195025 | 68 | 261 | 4.0 | 7.0 | 0.00 | 0.00 | 0.00 | 43 | 1011.8 |
| 20260507194030 | 67 | 310 | 3.0 | 4.0 | 0.00 | 0.00 | 0.00 | 43 | 1011.9 |
| 20260507193016 | 68 | 292 | 5.0 | 7.0 | 0.00 | 0.00 | 0.00 | 42 | 1012.1 |
| 20260507192022 | 68 | 329 | 5.0 | 8.0 | 0.00 | 0.00 | 0.00 | 43 | 1012.2 |
| 20260507191026 | 68 | 296 | 4.0 | 9.0 | 0.00 | 0.00 | 0.00 | 43 | 1012.2 |
| 20260507190031 | 68 | 307 | 7.0 | 13.0 | 0.00 | 0.00 | 0.00 | 42 | 1012.2 |
| 20260507185017 | 67 | 240 | 3.0 | 6.0 | 0.00 | 0.00 | 0.00 | 44 | 1012.3 |
| 20260507184022 | 67 | 283 | 3.0 | 4.0 | 0.00 | 0.00 | 0.00 | 43 | 1012.5 |
| 20260507183027 | 67 | 278 | 5.0 | 9.0 | 0.00 | 0.00 | 0.00 | 44 | 1012.6 |
| 20260507182032 | 67 | 304 | 5.0 | 8.0 | 0.00 | 0.00 | 0.00 | 44 | 1012.7 |
| 20260507181018 | 66 | 312 | 5.0 | 8.0 | 0.00 | 0.00 | 0.00 | 45 | 1012.8 |
| 20260507180023 | 65 | 311 | 4.0 | 7.0 | 0.00 | 0.00 | 0.00 | 43 | 1013.2 |
| 20260507175028 | 65 | 271 | 6.0 | 12.0 | 0.00 | 0.00 | 0.00 | 44 | 1013.2 |
| 20260507174033 | 66 | 317 | 4.0 | 7.0 | 0.00 | 0.00 | 0.00 | 43 | 1013.2 |
| 20260507173019 | 65 | 296 | 4.0 | 7.0 | 0.00 | 0.00 | 0.00 | 43 | 1013.3 |
| 20260507172025 | 65 | 258 | 5.0 | 9.0 | 0.00 | 0.00 | 0.00 | 43 | 1013.5 |
| 20260507171029 | 65 | 291 | 5.0 | 9.0 | 0.00 | 0.00 | 0.00 | 45 | 1013.7 |
| 20260507170016 | 64 | 310 | 3.0 | 6.0 | 0.00 | 0.00 | 0.00 | 45 | 1014.0 |
| 20260507165020 | 65 | 281 | 5.0 | 10.0 | 0.00 | 0.00 | 0.00 | 46 | 1014.0 |
| 20260507164025 | 64 | 259 | 4.0 | 7.0 | 0.00 | 0.00 | 0.00 | 45 | 1014.1 |
| 20260507163031 | 62 | 201 | 3.0 | 5.0 | 0.00 | 0.00 | 0.00 | 47 | 1014.2 |
| 20260507162018 | 63 | 293 | 5.0 | 8.0 | 0.00 | 0.00 | 0.00 | 48 | 1014.4 |
| 20260507161023 | 62 | 266 | 3.0 | 5.0 | 0.00 | 0.00 | 0.00 | 46 | 1014.6 |
| 20260507160027 | 62 | 335 | 3.0 | 5.0 | 0.00 | 0.00 | 0.00 | 48 | 1014.6 |
| 20260507155031 | 62 | 275 | 5.0 | 8.0 | 0.00 | 0.00 | 0.00 | 48 | 1014.6 |
| 20260507154018 | 61 | 177 | 3.0 | 5.0 | 0.00 | 0.00 | 0.00 | 50 | 1014.7 |
| 20260507153024 | 61 | 275 | 4.0 | 5.0 | 0.00 | 0.00 | 0.00 | 50 | 1015.0 |
| 20260507152049 | 60 | 290 | 3.0 | 5.0 | 0.00 | 0.00 | 0.00 | 51 | 1015.3 |
| 20260507151033 | 59 | 285 | 3.0 | 6.0 | 0.00 | 0.00 | 0.00 | 51 | 1015.4 |
| 20260507150019 | 60 | 293 | 3.0 | 5.0 | 0.00 | 0.00 | 0.00 | 51 | 1015.7 |
| 20260507145104 | 58 | 213 | 3.0 | 5.0 | 0.00 | 0.00 | 0.00 | 51 | 1015.8 |
| 20260507144029 | 59 | 271 | 5.0 | 7.0 | 0.00 | 0.00 | 0.00 | 51 | 1015.9 |
| 20260507143016 | 58 | 347 | 5.0 | 8.0 | 0.00 | 0.04 | 0.00 | 51 | 1015.9 |
| 20260507142020 | 58 | 293 | 4.0 | 6.0 | 0.00 | 0.05 | 0.00 | 49 | 1016.0 |
| 20260507141026 | 57 | 258 | 4.0 | 5.0 | 0.00 | 0.07 | 0.00 | 49 | 1016.3 |
| 20260507140044 | 56 | 240 | 3.0 | 5.0 | 0.00 | 0.09 | 0.00 | 52 | 1016.4 |
| 20260507135017 | 56 | 264 | 2.0 | 5.0 | 0.00 | 0.11 | 0.00 | 52 | 1016.5 |
| 20260507134023 | 54 | 46 | 2.0 | 4.0 | 0.00 | 0.14 | 0.00 | 52 | 1016.6 |
| 20260507133020 | 54 | 317 | 2.0 | 4.0 | 0.00 | 0.18 | 0.00 | 54 | 1016.6 |
| 20260507132019 | 53 | 314 | 2.0 | 4.0 | 0.00 | 0.18 | 0.00 | 55 | 1016.5 |
| 20260507131018 | 52 | 295 | 3.0 | 4.0 | 0.00 | 0.20 | 0.00 | 55 | 1016.5 |
| 20260507130018 | 52 | 296 | 4.0 | 5.0 | 0.00 | 0.20 | 0.00 | 58 | 1016.4 |
| 20260507125015 | 52 | 296 | 3.0 | 5.0 | 0.00 | 0.20 | 0.00 | 57 | 1016.4 |
| 20260507124033 | 52 | 296 | 3.0 | 5.0 | 0.00 | 0.20 | 0.00 | 61 | 1016.4 |
| 20260507123019 | 52 | 282 | 4.0 | 5.0 | 0.00 | 0.20 | 0.00 | 59 | 1016.4 |
| 20260507122044 | 52 | 300 | 2.0 | 3.0 | 0.00 | 0.20 | 0.00 | 60 | 1016.5 |
| 20260507121028 | 51 | 302 | 3.0 | 5.0 | 0.00 | 0.20 | 0.00 | 59 | 1016.5 |
| 20260507120034 | 51 | 317 | 3.0 | 4.0 | 0.00 | 0.21 | 0.00 | 60 | 1016.4 |
| 20260507115040 | 51 | 301 | 2.0 | 4.0 | 0.00 | 0.21 | 0.00 | 62 | 1016.5 |
| 20260507114024 | 51 | 303 | 4.0 | 5.0 | 0.00 | 0.22 | 0.00 | 62 | 1016.5 |
| 20260507113030 | 51 | 314 | 3.0 | 5.0 | 0.00 | 0.22 | 0.00 | 61 | 1016.4 |
| 20260507112016 | 50 | 317 | 2.0 | 3.0 | 0.00 | 0.22 | 0.00 | 66 | 1016.3 |
| 20260507111042 | 50 | 315 | 0.0 | 2.0 | 0.00 | 0.22 | 0.00 | 65 | 1016.0 |
| 20260507110025 | 50 | 309 | 2.0 | 4.0 | 0.00 | 0.22 | 0.00 | 66 | 1015.9 |
| 20260507105112 | 49 | 287 | 1.0 | 3.0 | 0.00 | 0.22 | 0.00 | 67 | 1015.8 |
| 20260507104037 | 49 | 321 | 2.0 | 3.0 | 0.00 | 0.22 | 0.00 | 67 | 1015.7 |
| 20260507103022 | 49 | 349 | 2.0 | 4.0 | 0.00 | 0.22 | 0.00 | 68 | 1015.6 |